Location: ??????????
(54.8537°N, 38.8755°E)
Time: 05:17:34
(UTC+00:00)

Tiros 1 despin weight - Pass Details

Date: 17 September 2024
Orbit: 573 x 615 km, 48.2° (Epoch: 06 October)

Event Time Altitude Azimuth Distance (km) Brightness Sun altitude
Rises 02:28:02 0° 253° (WSW) 2,881 - -5.6°
Exits shadow 02:29:35 - 248° (WSW) 2,298 ? -5.3°
Reaches altitude 10° 02:30:28 10° 244° (WSW) 1,979 ? -5.2°
Maximum altitude 02:34:38 36° 178° (S) 985 ? -4.6°
Drops below altitude 10° 02:38:48 10° 113° (ESE) 1,982 ? -4.0°
Sets 02:41:14 0° 104° (ESE) 2,885 ? -3.7°
